Weather History for Imperial, NE

Change the Weather History Date:

Friday, July 12, 2013

  Actual Average Record
Temperature  
Mean Temperature 88 °F 76 °F  
Max Temperature 104 °F 91 °F 107 °F (1939)
Min Temperature 71 °F 62 °F 40 °F (1922)
Degree Days  
Heating Degree Days 0 0  
Month to date heating degree days 0 0  
Since 1 June heating degree days 24 34  
Cooling Degree Days 23 12  
Month to date cooling degree days 146 128  
Year to date cooling degree days 445 356  
Since 1 June cooling degree days 377 312  
Growing Degree Days 37 (Base 50)    
Moisture  
Dew Point 59 °F    
Average Humidity 43    
Maximum Humidity 68    
Minimum Humidity 18    
Precipitation  
Precipitation 0.00 in 0.11 in 1.14 in (1940)
Sea Level Pressure  
Sea Level Pressure 29.78 in    
Wind  
Wind Speed 9 mph (SSE)    
Max Wind Speed 17 mph    
Max Gust Speed 22 mph    
Visibility 10 miles    
Events      
T = Trace of Precipitation, MM = Missing Value Source: NWS Daily Summary

Daily Weather History Graph

Daily Weather History Graph

Search for Another Location

Airport:

Trip Planner

Search our weather history database for the weather conditions in past years. The results will help you decide how hot, cold, wet, or windy it might be!

Date:

Astronomy

Jul. 12, 2013 Rise Set
Actual Time 5:26 AM MDT 8:17 PM MDT
Civil Twilight 4:54 AM MDT 8:49 PM MDT
Nautical Twilight 4:13 AM MDT 9:30 PM MDT
Astronomical Twilight 3:26 AM MDT 10:17 PM MDT
Moon 9:46 AM MDT (7/12) 10:27 PM MDT (7/12)
Length of Visible Light 15h 55m
Length of Day
14h 50m
Waxing Crescent, 18% of the Moon is Illuminated
Jul 12
Waxing Crescent
Jul 15
First Quarter
Jul 22
Full
Jul 29
Last Quarter
Aug 6
New

Hourly Weather History & Observations

Time (MDT) Temp. Heat Index Dew Point Humidity Pressure Visibility Wind Dir Wind Speed Gust Speed Precip Events Conditions
12:53 AM 72.0 °F - 61.0 °F 68% 29.83 in 10.0 mi SSE 6.9 mph - N/A   Clear
1:53 AM 73.0 °F - 60.1 °F 64% 29.80 in 10.0 mi SSE 8.1 mph - N/A   Clear
2:53 AM 73.9 °F - 60.1 °F 62% 29.79 in 10.0 mi SSE 9.2 mph - N/A   Clear
3:53 AM 72.0 °F - 60.1 °F 66% 29.79 in 10.0 mi SSE 12.7 mph - N/A   Clear
4:53 AM 72.0 °F - 60.1 °F 66% 29.78 in 10.0 mi South 13.8 mph 20.7 mph N/A   Clear
5:53 AM 72.0 °F - 60.1 °F 66% 29.79 in 10.0 mi South 11.5 mph 19.6 mph N/A   Clear
6:53 AM 73.9 °F - 60.1 °F 62% 29.81 in 10.0 mi South 6.9 mph - N/A   Clear
7:53 AM 78.1 °F - 61.0 °F 56% 29.82 in 10.0 mi South 11.5 mph - N/A   Clear
8:53 AM 81.0 °F 81.7 °F 61.0 °F 50% 29.83 in 10.0 mi SSW 4.6 mph - N/A   Clear
9:53 AM 86.0 °F 86.3 °F 62.1 °F 44% 29.81 in 10.0 mi SSE 10.4 mph 16.1 mph N/A   Clear
10:53 AM 90.0 °F 90.0 °F 61.0 °F 38% 29.80 in 10.0 mi South 8.1 mph - N/A   Clear
11:53 AM 93.9 °F 94.0 °F 61.0 °F 33% 29.79 in 10.0 mi South 5.8 mph - N/A   Clear
12:53 PM 96.1 °F 96.0 °F 60.1 °F 30% 29.78 in 10.0 mi South 8.1 mph - N/A   Clear
1:53 PM 99.0 °F 98.1 °F 57.0 °F 25% 29.76 in 10.0 mi Variable 3.5 mph - N/A   Clear
2:53 PM 100.9 °F - 52.0 °F 19% 29.73 in 10.0 mi Variable 6.9 mph 16.1 mph N/A   Clear
3:53 PM 102.0 °F - 52.0 °F 19% 29.72 in 10.0 mi SSE 12.7 mph 18.4 mph N/A   Partly Cloudy
4:53 PM 102.9 °F 100.9 °F 53.1 °F 19% 29.71 in 10.0 mi South 8.1 mph 19.6 mph N/A   Clear
5:53 PM 100.0 °F 98.3 °F 55.0 °F 22% 29.70 in 10.0 mi SSE 8.1 mph - N/A   Partly Cloudy
6:53 PM 95.0 °F 94.0 °F 57.9 °F 29% 29.70 in 10.0 mi SE 8.1 mph - N/A   Clear
7:53 PM 90.0 °F 87.7 °F 54.0 °F 29% 29.73 in 10.0 mi SE 9.2 mph - N/A   Clear
8:53 PM 88.0 °F 85.9 °F 54.0 °F 31% 29.74 in 10.0 mi SSE 11.5 mph - N/A   Clear
9:53 PM 87.1 °F 85.9 °F 57.0 °F 36% 29.79 in 10.0 mi WNW 13.8 mph 18.4 mph N/A   Scattered Clouds
10:53 PM 80.1 °F 81.5 °F 63.0 °F 56% 29.82 in 10.0 mi NNW 8.1 mph - N/A   Clear
11:53 PM 77.0 °F - 64.0 °F 64% 29.84 in 10.0 mi North 9.2 mph - N/A   Partly Cloudy